sat.trackr.live / text

‹ back to catalog

STARLINK-37119

NORAD 68210 · 2026-053D

PAYLOAD ACTIVE UNKNOWN

§ Identity

Operator
Country
US
Launch date
2026-03-17
Launch site
AFWTR
Launch vehicle
Mass (kg)
RCS (m²)

Purposes: comms

External: N2YO · Heavens-Above · Gunter

§ Orbital elements

Epoch: 2026-05-25T05:16:14.877696Z

Period
93.91 min
Inclination
97.2858°
Eccentricity
0.0001421
Mean motion
15.33454412 rev/d
Perigee alt
464.5 km
Apogee alt
466.5 km
Semi-major
6,843.7 km
B*
4.3513e-4
RAAN
20.6246°
Arg perigee
92.6530°
Mean anomaly
267.4875°
Rev number
1,194

§ Raw data

STARLINK-371191 68210U 26053D   26145.21961664  .00014003  00000+0  43513-3 0  99922 68210  97.2858  20.6246 0001421  92.6530 267.4875 15.33454412 11947

JSON: /api/v1/satellites/68210 · /tle

For live sub-satellite position, see the globe view (requires WebGL).

§ Visibility from observer

Set your observer location to see the next 7 days of passes ≥ 10°. The values pass through the URL so the page stays shareable.

No JS? Fill the form by hand. The geolocation button needs JavaScript.